Station SDHN4 - 8531680 - Sandy Hook, NJ Image indicating link to RSS feed of recent meteorological observations for station SDHN4


Conditions at SDHN4 as of
(3:30 pm EDT)
1930 GMT on 05/26/2024:
     

Click on the graph icon in the table below to see a time series plot of the last five days of that observation.

5-day plot - Wind Direction Wind Direction (WDIR): SE ( 140 deg true )
5-day plot - Wind Speed Wind Speed (WSPD): 8.9 kts
5-day plot - Wind Gust Wind Gust (GST): 14.0 kts
5-day plot - Atmospheric Pressure Atmospheric Pressure (PRES):29.93 in
5-day plot - Air Temperature Air Temperature (ATMP): 68.5 °F
5-day plot - Water Temperature Water Temperature (WTMP): 69.3 °F
5-day plot - Wind Speed at 10 Meters Wind Speed at 10 meters (WSPD10M): 9.7 kts
5-day plot - Wind Speed at 20 Meters Wind Speed at 20 meters (WSPD20M): 11.7 kts
5-day plot -  Wind Speed, Wind Gust and Atmospheric Pressure Combined plot of Wind Speed, Gust, and Air Pressure
NOS Water Level Observation Network Water Level
Previous observations
TIME
(EDT)
5-day plot - Wind Direction
WDIR
 
5-day plot - Wind Speed
WSPD
kts
5-day plot - Wind Gust
GST
kts
5-day plot - Wave Height
WVHT
ft
5-day plot - Dominant Wave Period
DPD
sec
5-day plot - Average Wave Period
APD
sec
5-day plot - Mean Wave Direction
MWD
 
5-day plot - Atmospheric Pressure
PRES
in
5-day plot - Pressure Tendency
PTDY
in
5-day plot - Air Temperature
ATMP
°F
5-day plot - Water Temperature
WTMP
°F
5-day plot - Dew Point
DEWP
°F
5-day plot - Salinity
SAL
psu
5-day plot - Visibility
VIS
nmi
5-day plot - Tide (above MLLW)
TIDE
ft
2024-05-26 03:24 pm SE 8.9 12.0----29.93- 68.0 69.4----
2024-05-26 03:18 pm SE 8.9 13.0----29.93-- 69.4----
2024-05-26 03:12 pm SE 9.9 13.0----29.93-- 69.8----
2024-05-26 03:06 pm SE 12.0 14.0----29.92-- 69.6----
2024-05-26 03:00 pmSSE 11.1 14.0----29.92-0.02 67.1 69.6----
2024-05-26 02:54 pm SE 11.1 17.1----29.92- 67.3 69.3----
2024-05-26 02:48 pm-------29.92- 67.5 69.1----
2024-05-26 02:42 pm-------29.93- 67.6 69.3----
2024-05-26 02:36 pm-------29.93- 67.8 68.9----
2024-05-26 02:30 pm SE 9.9 14.0----29.93- 67.5 68.7----
2024-05-26 02:24 pmESE 9.9 13.0----29.93- 68.5 68.5----
2024-05-26 02:18 pm SE 8.9 13.0----29.93- 69.3 68.5----
2024-05-26 02:12 pm SE 8.0 15.0----29.93- 69.1 68.5----
2024-05-26 02:06 pm SE 11.1 15.9----29.92- 68.7 68.5----
2024-05-26 02:00 pm SE 12.0 15.9------- 68.5----
2024-05-26 01:54 pm SE 9.9 15.0------- 68.5----
2024-05-26 01:48 pm SE 9.9 14.0----29.92- 70.5 68.5----
2024-05-26 01:42 pm SE 11.1 14.0----29.93- 70.5 68.4----
2024-05-26 01:36 pm SE 11.1 15.0----29.93- 70.2 68.4----
2024-05-26 01:30 pm SE 11.1 14.0----29.93-- 68.2----
2024-05-26 01:24 pmSSE 9.9 13.0----29.94-- 68.2----
2024-05-26 01:18 pmSSE 11.1 15.0----29.94- 70.5 68.2----
2024-05-26 01:12 pmSSE 8.9 13.0----29.94- 70.3 68.2----
2024-05-26 01:06 pm SE 11.1 14.0----29.94- 70.9 68.4----
2024-05-26 01:00 pm SE 8.9 13.0----29.94+0.02 71.1 68.4----
2024-05-26 12:54 pm SE 12.0 13.0----29.94- 71.1 68.4----
2024-05-26 12:48 pm SE 9.9 11.1----29.94- 71.4 68.4----
2024-05-26 12:42 pm SE 11.1 13.0----29.94- 70.3 68.2----
2024-05-26 12:36 pm SE 8.9 12.0----29.94- 70.3 68.2----
2024-05-26 12:30 pm SE 8.0 12.0----29.94- 70.5 68.0----
2024-05-26 12:24 pm SE 9.9 12.0----29.94- 70.9 68.0----
2024-05-26 12:18 pm SE 9.9 14.0----29.94- 70.2 67.8----
2024-05-26 12:12 pm SE 12.0 13.0----29.94- 69.6 67.8----
2024-05-26 12:06 pm SE 9.9 12.0----29.94- 70.0 67.6----
2024-05-26 12:00 pm SE 8.0 11.1----29.94+0.01 70.5 67.5----
2024-05-26 11:54 am SE 9.9 12.0----29.94- 69.4 67.1----
2024-05-26 11:48 am SE 8.0 11.1----29.94- 70.7 66.9----
2024-05-26 11:42 amESE 7.0 9.9----29.94- 70.7 66.6----
2024-05-26 11:36 amESE 7.0 8.9----29.94- 70.3 66.2----
2024-05-26 11:30 amESE 8.0 8.9----29.94- 70.9 65.7----
2024-05-26 11:24 am SE 5.1 7.0----29.94- 71.8 65.3----
2024-05-26 11:18 amESE 6.0 8.0----29.94- 71.6 64.6----
2024-05-26 11:12 amESE 6.0 8.9----29.94- 71.6 64.0----
2024-05-26 11:06 am SE 7.0 8.9----29.94- 71.4 63.9----
2024-05-26 11:00 am SE 6.0 8.0----29.94+0.00 71.1 63.5----
2024-05-26 10:54 amSSE 6.0 9.9----29.94- 70.2 63.3----
2024-05-26 10:48 am SE 6.0 9.9----29.93- 69.4 63.1----
2024-05-26 10:42 am SE 6.0 8.0----29.94- 69.6 63.1----
2024-05-26 10:36 am SE 6.0 8.9----29.94- 68.5 63.0----
2024-05-26 10:30 amESE 7.0 9.9----29.94- 67.5 63.0----
2024-05-26 10:24 amESE 7.0 8.9----29.93- 67.5 63.0----
2024-05-26 10:18 amESE 7.0 9.9----29.94- 67.1 63.0----
2024-05-26 10:12 am E 6.0 8.9----29.93- 67.6 63.0----
2024-05-26 10:06 am E 6.0 8.9----29.93- 67.8 63.1----
2024-05-26 10:00 am E 6.0 8.9----29.93+0.01 68.0-----
2024-05-26 09:54 amSSE 4.1 5.1----29.93- 68.2-----
2024-05-26 09:48 am S 4.1 5.1----29.93- 67.3-----
2024-05-26 09:42 amSSE 4.1 5.1----29.93- 67.1-----
2024-05-26 09:36 amSSE 5.1 7.0----29.93- 66.2-----
2024-05-26 09:30 am SE 7.0 8.0----29.93- 65.5-----
2024-05-26 09:24 amSSE 7.0 8.0----29.93- 64.9-----
2024-05-26 09:18 am SE 6.0 7.0----29.93- 64.9-----
2024-05-26 09:12 am SE 7.0 8.0----29.93- 64.4-----
2024-05-26 09:06 amSSE 7.0 8.9----29.93- 63.9-----
2024-05-26 09:00 am SE 7.0 9.9----29.93+0.03 64.2-----
2024-05-26 08:54 am SE 8.0 9.9----29.93- 63.9-----
2024-05-26 08:48 am SE 6.0 8.9----29.93- 64.2-----
2024-05-26 08:42 am SE 7.0 8.9----29.93- 63.7-----
2024-05-26 08:36 am SE 6.0 9.9----29.94- 63.7-----
2024-05-26 08:30 amESE 7.0 11.1----29.93- 63.5-----
2024-05-26 08:24 amESE 7.0 8.9----29.93- 63.7-----
2024-05-26 08:18 amESE 7.0 8.9----29.93- 63.3 62.6----
2024-05-26 08:12 am E 7.0 8.9----29.93- 63.1 62.6----
2024-05-26 08:06 am E 6.0 8.0----29.93- 63.1 62.8----
2024-05-26 08:00 am-------29.94+0.05 63.0-----
2024-05-26 07:54 am-------29.93- 63.1-----
2024-05-26 07:48 am E 5.1 8.0----29.93- 63.0 63.5----
2024-05-26 07:42 am E 5.1 7.0----29.93- 62.8 64.2----
2024-05-26 07:36 am E 5.1 6.0----29.93- 62.8 65.1----
2024-05-26 07:30 amESE 5.1 6.0----29.93- 62.6 66.9----
2024-05-26 07:24 amESE 5.1 8.0----29.93- 62.8 67.3----
2024-05-26 07:18 amESE 5.1 7.0----29.93-- 67.3----
2024-05-26 07:12 amESE 5.1 7.0----29.92-- 67.3----
2024-05-26 07:06 amESE 5.1 7.0----29.92-- 67.3----
2024-05-26 07:00 amESE 5.1 6.0----29.92+0.03- 67.3----
2024-05-26 06:54 amESE 5.1 8.0----29.92-- 67.3----
2024-05-26 06:48 amESE 6.0 8.0----29.92-- 67.5----
2024-05-26 06:42 am E 7.0 8.9----29.91-- 67.5----
2024-05-26 06:36 am E 5.1 7.0----29.91-- 67.5----
2024-05-26 06:30 am E 5.1 6.0----29.91- 62.6 67.3----
2024-05-26 06:24 am E 4.1 7.0----29.91- 62.6 67.3----
2024-05-26 06:18 am E 6.0 8.0----29.90-- 67.1----
2024-05-26 06:12 am E 6.0 8.0----29.90-- 67.3----
2024-05-26 06:06 am E 6.0 7.0----29.90-- 67.5----
2024-05-26 06:00 am E 6.0 7.0----29.90+0.02 62.6 67.5----
2024-05-26 05:54 am E 7.0 8.9----29.90- 62.6 67.5----
2024-05-26 05:48 am E 5.1 7.0----29.90- 62.8 67.5----
2024-05-26 05:42 am E 5.1 6.0----29.90- 62.8 67.5----
2024-05-26 05:36 am E 5.1 6.0----29.90- 62.8 67.5----
2024-05-26 05:30 am E 6.0 8.0----29.89- 63.0 67.5----
2024-05-26 05:24 am E 6.0 7.0----29.89- 63.0 67.5----
2024-05-26 05:18 am E 6.0 7.0----29.89- 63.0 67.5----
2024-05-26 05:12 am E 6.0 7.0----29.89- 63.0 67.6----
2024-05-26 05:06 am E 4.1 5.1----29.89- 63.3 67.6----
2024-05-26 05:00 am E 2.9 4.1----29.89+0.02 63.3 67.6----
2024-05-26 04:54 am E 4.1 5.1----29.88- 63.3 67.6----
2024-05-26 04:48 am E 4.1 5.1----29.88-- 67.6----
2024-05-26 04:42 am E 4.1 5.1----29.88-- 67.6----
2024-05-26 04:36 am E 2.9 4.1----29.88-- 67.5----
2024-05-26 04:30 amESE 4.1 5.1----29.88- 63.7 67.5----
2024-05-26 04:24 am E 2.9 2.9----29.88- 63.9 67.5----
2024-05-26 04:18 amNNE 1.9 4.1----29.89- 64.0 67.5----
2024-05-26 04:12 amNNE 2.9 2.9----29.89- 64.0 67.5----
2024-05-26 04:06 am E 1.9 2.9----29.88- 63.9 67.5----
2024-05-26 04:00 am NE 1.9 4.1----29.88+0.01 64.0 67.6----
2024-05-26 03:54 am- 0.0 1.9----29.89- 64.6 67.6----
2024-05-26 03:48 amNNE 1.9 2.9----29.89- 64.4 67.6----
2024-05-26 03:42 amNNE 1.0 2.9----29.89- 64.8 67.6----
2024-05-26 03:36 am SE 1.9 4.1----29.89- 64.6 67.6----
2024-05-26 03:30 amNNE 4.1 5.1----29.89- 64.6 67.6----
2024-05-26 03:24 am- 0.0 1.9----29.89- 64.8 67.6----
2024-05-26 03:18 am SE 1.9 2.9----29.89- 64.8 67.5----
2024-05-26 03:12 am SE 1.9 2.9----29.88- 64.9 67.5----
2024-05-26 03:06 am SE 2.9 5.1----29.88- 65.3 67.5----
2024-05-26 03:00 amSSE 2.9 4.1----29.88+0.00 65.3 67.3----
2024-05-26 02:54 amSSE 4.1 5.1----29.88- 65.5 67.3----
2024-05-26 02:48 amSSE 5.1 7.0----29.88- 65.5 66.9----
2024-05-26 02:42 amSSE 5.1 6.0----29.88- 65.3 66.6----
2024-05-26 02:36 amSSE 4.1 5.1----29.88- 65.3 66.2----
2024-05-26 02:30 amSSE 4.1 6.0----29.88- 65.3 65.8----
2024-05-26 02:24 amSSE 6.0 7.0----29.87- 65.7 65.8----
2024-05-26 02:18 am S 7.0 8.0----29.88- 65.8 66.0----
2024-05-26 02:12 amSSE 5.1 6.0----29.87- 65.5 66.6----
2024-05-26 02:06 amSSE 6.0 7.0----29.87- 65.7 66.9----
2024-05-26 02:00 amSSE 6.0 8.0----29.87-0.03 65.8 67.1----
2024-05-26 01:54 am S 7.0 8.9----29.87- 65.8 67.1----
2024-05-26 01:48 am S 8.0 8.9----29.87- 65.8 67.1----
2024-05-26 01:42 am S 8.0 8.9----29.87- 66.0 67.3----
2024-05-26 01:36 am S 7.0 8.0----29.87- 66.0 67.3----
2024-05-26 01:30 am S 6.0 7.0----29.87- 65.7 67.5----
2024-05-26 01:24 am S 7.0 8.9----29.87- 65.8 67.6----
2024-05-26 01:18 amSSE 6.0 7.0----29.87- 65.8 67.8----
2024-05-26 01:12 amSSE 6.0 8.0----29.88- 65.5 68.0----
2024-05-26 01:06 am S 7.0 8.0----29.88- 65.3 68.0----
2024-05-26 01:00 amSSE 6.0 8.0----29.88-0.02 65.5 68.0----
2024-05-26 12:54 amSSE 5.1 6.0----29.88- 65.1 68.0----
2024-05-26 12:48 amSSE 5.1 6.0----29.88- 64.8 68.0----
2024-05-26 12:42 amSSE 5.1 5.1----29.88- 64.8 68.0----
2024-05-26 12:36 am SE 4.1 4.1----29.88- 64.6 67.8----
2024-05-26 12:30 am SE 2.9 4.1----29.88- 64.4 67.8----
2024-05-26 12:24 amESE 2.9 4.1----29.88- 64.4 67.8----
2024-05-26 12:18 am SE 4.1 6.0----29.88- 64.4 67.8----
2024-05-26 12:12 amESE 2.9 4.1----29.88- 64.2 67.8----
2024-05-26 12:06 am E 2.9 2.9----29.89- 64.4 67.8----
2024-05-26 12:00 am E 1.9 2.9----29.89+0.00 64.8 67.8----
2024-05-25 11:54 pm- 0.0 0.0----29.90- 64.6 67.8----
2024-05-25 11:48 pm- 0.0 2.9----29.90- 64.4 67.8----
2024-05-25 11:42 pm NW 2.9 4.1----29.90- 64.2 67.8----
2024-05-25 11:36 pmNNW 1.9 5.1----29.91- 63.9 67.8----
2024-05-25 11:30 pmNNW 2.9 4.1----29.91- 63.5 67.8----
2024-05-25 11:24 pm- 0.0 1.9----29.91- 63.3 67.8----
2024-05-25 11:18 pm NE 1.9 4.1----29.91- 63.1 67.8----
2024-05-25 11:12 pm E 4.1 5.1----29.90- 63.1 67.8----
2024-05-25 11:06 pmESE 2.9 4.1----29.90- 63.3 67.8----
2024-05-25 11:00 pm SE 1.9 4.1----29.90+0.02 63.5 67.6----
2024-05-25 10:54 pmSSE 2.9 4.1----29.90- 63.7 67.5----
2024-05-25 10:48 pm SE 2.9 4.1----29.90- 63.3 67.5----
2024-05-25 10:42 pmESE 4.1 4.1----29.90- 63.0 67.5----
2024-05-25 10:36 pm E 2.9 2.9----29.91- 63.0 67.5----
2024-05-25 10:30 pm SE 1.9 1.9----29.91- 63.1 67.3----
2024-05-25 10:24 pmSSE 2.9 5.1----29.91- 63.3 67.1----
2024-05-25 10:18 pm S 2.9 4.1----29.91- 63.1 66.9----
2024-05-25 10:12 pmSSE 2.9 5.1----29.90- 62.6 66.9----
2024-05-25 10:06 pmESE 4.1 6.0----29.90- 62.6 66.9----
2024-05-25 10:00 pm SE 4.1 7.0----29.90+0.03 62.4 66.7----
2024-05-25 09:54 pm SE 6.0 8.0----29.90- 62.4 66.9----
2024-05-25 09:48 pm SE 5.1 8.9----29.89- 62.6 66.9----
2024-05-25 09:42 pm SE 5.1 8.9----29.89- 63.0 67.5----
2024-05-25 09:36 pm E 7.0 9.9----29.89- 63.1 67.6----
2024-05-25 09:30 pm E 8.0 9.9----29.88- 63.1 67.6----
2024-05-25 09:24 pm E 5.1 8.0----29.88- 63.1 67.6----
2024-05-25 09:18 pmESE 5.1 8.0----29.88- 63.0 67.6----
2024-05-25 09:12 pmESE 6.0 8.0----29.88- 63.0 67.6----
2024-05-25 09:06 pmESE 6.0 7.0----29.89- 63.0 67.6----
2024-05-25 09:00 pm E 4.1 6.0----29.89- 63.0 67.6----
2024-05-25 08:54 pmESE 4.1 6.0----29.88- 63.0 67.6----
2024-05-25 08:48 pm SE 4.1 7.0----29.88- 63.0 67.5----
2024-05-25 08:42 pmESE 5.1 7.0----29.88- 62.8 67.3----
2024-05-25 08:36 pmESE 5.1 7.0----29.88- 63.0 67.1----
2024-05-25 08:30 pmESE 5.1 7.0----29.88- 62.8 66.9----
2024-05-25 08:24 pm SE 5.1 7.0----29.88- 62.8 66.4----
2024-05-25 08:18 pmESE 4.1 7.0----29.88- 62.8 65.8----
2024-05-25 08:12 pmESE 5.1 7.0----29.88- 62.6 65.3----
2024-05-25 08:06 pmESE 5.1 7.0----29.88- 62.6 64.8----
2024-05-25 08:00 pm SE 5.1 8.0----29.88+0.00 62.8 64.0----
2024-05-25 07:54 pm SE 8.0 11.1----29.88- 62.6 63.5----
2024-05-25 07:48 pm-------29.88- 62.6 62.8----
2024-05-25 07:42 pm-------29.88- 62.6 62.4----
2024-05-25 07:36 pm-------29.87- 62.6 62.4----
2024-05-25 07:30 pmESE 5.1 9.9----29.87-- 62.2----
2024-05-25 07:24 pmESE 7.0 11.1----29.87-- 62.2----
2024-05-25 07:00 pm SE 8.0 12.0----29.87-0.01 63.1 62.4----
2024-05-25 06:54 pmESE 8.9 15.0----29.87- 63.1 62.4----
2024-05-25 06:48 pm SE 11.1 14.0----29.87-- 62.4----
2024-05-25 06:42 pm SE 9.9 14.0----29.87-- 62.6----
2024-05-25 06:36 pm SE 8.9 15.0----29.87-- 62.6----
2024-05-25 06:30 pmESE 9.9 14.0----29.87- 63.7 62.8----
2024-05-25 06:24 pmESE 8.0 14.0----29.87- 64.2 63.0----
2024-05-25 06:18 pmESE 11.1 15.0----29.87- 63.7 63.5----
2024-05-25 06:12 pmESE 11.1 15.0----29.87- 64.2 63.9----
2024-05-25 06:06 pmESE 11.1 15.0----29.87- 64.6 63.5----
2024-05-25 06:00 pm SE 11.1 15.0------ 64.8 63.5----
2024-05-25 05:54 pmESE 8.0 14.0------ 65.3 63.5----
2024-05-25 05:48 pmESE 8.9 13.0----29.88-- 63.5----
2024-05-25 05:42 pmESE 9.9 14.0----29.88-- 63.3----
2024-05-25 05:36 pmESE 11.1 14.0----29.88-- 63.0----
2024-05-25 05:30 pmESE 12.0 14.0----29.88- 64.4-----
2024-05-25 05:24 pmESE 11.1 13.0----29.88- 64.8-----
2024-05-25 05:18 pmESE 8.9 12.0----29.88- 64.6 64.0----
2024-05-25 05:12 pmESE 9.9 12.0----29.88- 64.2 65.8----
2024-05-25 05:06 pmESE 8.9 13.0----29.88- 64.4 66.9----
2024-05-25 05:00 pmESE 11.1 13.0----29.88-0.02 64.0 67.8----
2024-05-25 04:54 pmESE 9.9 14.0----29.88- 64.4 68.2----
2024-05-25 04:48 pm E 13.0 14.0----29.88-- 68.7----
2024-05-25 04:42 pmESE 8.9 13.0----29.88-- 68.5----
2024-05-25 04:36 pm E 11.1 13.0----29.88-- 68.4----
2024-05-25 04:30 pm E 11.1 13.0----29.88- 64.6 68.4----
2024-05-25 04:24 pm E 8.9 12.0----29.88- 64.9 68.5----
2024-05-25 04:18 pmESE 9.9 13.0----29.88- 64.9 68.9----
2024-05-25 04:12 pm E 12.0 14.0----29.88- 64.4 69.1----
2024-05-25 04:06 pm SE 8.9 13.0----29.88- 65.3 69.3----
2024-05-25 04:00 pm-------29.88-0.03 64.8 69.1----
2024-05-25 03:54 pm-------29.88- 64.6 69.1----